sat.trackr.live / text

‹ back to catalog

HULIANWANG DIGUI-116

NORAD 66955 · 2025-287C

PAYLOAD ACTIVE UNKNOWN

§ Identity

Operator
Country
PRC
Launch date
2025-12-08
Launch site
TAISC
Launch vehicle
Mass (kg)
RCS (m²)

External: N2YO · Heavens-Above · Gunter

§ Orbital elements

Epoch: 2026-05-25T03:50:27.988224Z

Period
108.73 min
Inclination
86.4871°
Eccentricity
0.0001583
Mean motion
13.24410185 rev/d
Perigee alt
1,166.7 km
Apogee alt
1,169.1 km
Semi-major
7,546.1 km
B*
4.2743e-5
RAAN
290.0615°
Arg perigee
113.0089°
Mean anomaly
247.1212°
Rev number
2,229

§ Raw data

HULIANWANG DIGUI-1161 66955U 25287C   26145.16004616  .00000033  00000+0  42743-4 0  99962 66955  86.4871 290.0615 0001583 113.0089 247.1212 13.24410185 22292

JSON: /api/v1/satellites/66955 · /tle

For live sub-satellite position, see the globe view (requires WebGL).

§ Visibility from observer

Set your observer location to see the next 7 days of passes ≥ 10°. The values pass through the URL so the page stays shareable.

No JS? Fill the form by hand. The geolocation button needs JavaScript.